sat.trackr.live / text

‹ back to catalog

YAOGAN-36 05A

NORAD 57452 · 2023-106A

PAYLOAD ACTIVE UNKNOWN

§ Identity

Operator
Country
PRC
Launch date
2023-07-26
Launch site
XICLF
Launch vehicle
Mass (kg)
RCS (m²)

External: N2YO · Heavens-Above · Gunter

§ Orbital elements

Epoch: 2026-09-21T23:06:21.822048Z

Period
94.55 min
Inclination
35.0043°
Eccentricity
0.0002331
Mean motion
15.23005191 rev/d
Perigee alt
495.2 km
Apogee alt
498.4 km
Semi-major
6,874.9 km
B*
2.3801e-4
RAAN
169.1098°
Arg perigee
237.1601°
Mean anomaly
122.8890°
Rev number
17,591

§ Raw data

YAOGAN-36 05A1 57452U 23106A   26264.96275257  .00005702  00000+0  23801-3 0  99982 57452  35.0043 169.1098 0002331 237.1601 122.8890 15.23005191175913

JSON: /api/v1/satellites/57452 · /tle

For live sub-satellite position, see the globe view (requires WebGL).

§ Visibility from observer

Set your observer location to see the next 7 days of passes ≥ 10°. The values pass through the URL so the page stays shareable.

No JS? Fill the form by hand. The geolocation button needs JavaScript.